This is the latest recevied weather packets stored in our database for station/object OE2ATN. If no packets are shown the sender has not sent any weather packets the latest 10 day(s).
| Time | Temp. | Humidity | Pressure | Rain* | Wind** | Luminosity | Snow |
|---|---|---|---|---|---|---|---|
| 1777577936 | 7.22° C | 53% | 1032.9 hPa | 0 mm | - | - | - |
| 1777577637 | 7.22° C | 52% | 1032.8 hPa | 0 mm | - | - | - |
| 1777577336 | 7.22° C | 54% | 1032.8 hPa | 0 mm | - | - | - |
| 1777577036 | 7.78° C | 50% | 1032.7 hPa | 0 mm | - | - | - |
| 1777576736 | 7.78° C | 51% | 1032.7 hPa | 0 mm | - | - | - |
| 1777576435 | 8.33° C | 47% | 1032.5 hPa | 0 mm | - | - | - |
| 1777576136 | 7.78° C | 51% | 1032.5 hPa | 0 mm | - | - | - |
| 1777575835 | 7.78° C | 51% | 1032.2 hPa | 0 mm | - | - | - |
| 1777575535 | 8.33° C | 51% | 1032.2 hPa | 0 mm | - | - | - |
| 1777575235 | 8.33° C | 50% | 1032.1 hPa | 0 mm | - | - | - |
| 1777574935 | 8.89° C | 47% | 1032.1 hPa | 0 mm | - | - | - |
| 1777574635 | 9.44° C | 41% | 1031.9 hPa | 0 mm | - | - | - |
| 1777574335 | 9.44° C | 41% | 1031.7 hPa | 0 mm | - | - | - |
| 1777574035 | 10° C | 41% | 1031.7 hPa | 0 mm | - | - | - |
| 1777573735 | 10° C | 40% | 1031.6 hPa | 0 mm | - | - | - |
| 1777573435 | 10.56° C | 41% | 1031.5 hPa | 0 mm | - | - | - |
| 1777573134 | 10.56° C | 39% | 1031.4 hPa | 0 mm | - | - | - |
| 1777572834 | 10.56° C | 41% | 1031.3 hPa | 0 mm | - | - | - |
| 1777572535 | 10.56° C | 40% | 1031.3 hPa | 0 mm | - | - | - |
| 1777572234 | 10.56° C | 41% | 1031.2 hPa | 0 mm | - | - | - |
| 1777571934 | 11.11° C | 41% | 1031.1 hPa | 0 mm | - | - | - |
| 1777571634 | 11.11° C | 39% | 1031.1 hPa | 0 mm | - | - | - |
| 1777571334 | 11.67° C | 40% | 1031.1 hPa | 0 mm | - | - | - |
| 1777571034 | 11.67° C | 38% | 1031 hPa | 0 mm | - | - | - |
| 1777570733 | 11.67° C | 38% | 1031 hPa | 0 mm | - | - | - |
* Rain latest hour (hover to see other rain measurements)
** Current wind speed in m/s (hover to see current wind gust speed)